Miscellaneous Local Product
Issued by NWS Hastings, NE

Home | Current Version | Previous Version | Text Only | Print | Product List | Glossary Off
Versions: 1 2 3 4 5 6 7 8 9 10 11 12 13 14 15 16 17 18 19 20 21 22 23 24 25 26 27 28 29 30 31 32 33 34 35 36 37 38 39 40 41 42 43 44 45 46 47 48 49 50

000
AXUS43 KGID 010002
MISGRI

GID CWA HOURLY WEATHER ROUNDUP
NATIONAL WEATHER SERVICE HASTINGS NE
700 PM CDT MON AUG 31 2015

NOTE: "FAIR" INDICATES FEW OR NO CLOUDS BELOW 12,000 FEET WITH NO
SIGNIFICANT WEATHER AND/OR OBSTRUCTIONS TO VISIBILITY.

...SOUTH CENTRAL NEBRASKA...

CITY           SKY/WX    TMP DP  RH WIND       PRES   REMARKS
GRAND ISLAND   SUNNY     85  69  58 SE7       29.90S
HASTINGS       SUNNY     87  66  49 SE12      29.88F
KEARNEY        SUNNY     88  66  48 SE6       29.89F HX  90
ORD            SUNNY     87  65  47 SE8       29.88S
YORK           SUNNY     84  72  65 CALM      29.89F
AURORA         SUNNY     83  69  61 SE5       29.89S
LEXINGTON      SUNNY     88  66  48 SE9       29.89S HX  90
HOLDREGE       SUNNY     89  60  38 SE8       29.89F
HEBRON         SUNNY     88  63  43 SE8       29.89S

...NEBRASKA PANHANDLE...

CITY           SKY/WX    TMP DP  RH WIND       PRES   REMARKS
CHADRON        PTSUNNY   83  54  36 SE12      29.93F
ALLIANCE       MOSUNNY   80  50  34 E8        29.99S
SCOTTSBLUFF    PTSUNNY   80  54  40 SE8       29.99R
SIDNEY         MOSUNNY   83  49  30 E10       30.02S

...WESTERN AND NORTH CENTRAL NEBRASKA...

CITY           SKY/WX    TMP DP  RH WIND       PRES   REMARKS
VALENTINE      PTSUNNY   78  60  53 N8        29.95S
AINSWORTH      PTSUNNY   78  65  63 NE5       29.94S
ONEILL         SUNNY     86  67  53 N8        29.89R
BROKEN BOW     MOSUNNY   87  66  49 S8        29.91R
IMPERIAL       PTSUNNY   86  60  41 N8        29.92S
NORTH PLATTE   MOSUNNY   85  66  53 E10       29.90S
MCCOOK         SUNNY     96  53  23 E5        29.86S HX  93

...EASTERN NEBRASKA...

CITY           SKY/WX    TMP DP  RH WIND       PRES   REMARKS
NORFOLK        SUNNY     82  71  69 SE7       29.89F
SO SIOUX CITY  SUNNY     81  69  67 S9        29.89S
TEKAMAH        SUNNY     80  72  76 SE5       29.90S
COLUMBUS       SUNNY     82  70  65 SE5       29.89S
ALBION         SUNNY     83  69  63 SE7       29.91S
OMAHA EPPLEY   MOSUNNY   84  66  54 S13       29.90F
OFFUTT AFB     SUNNY     82  71  68 E7        29.90S
MILLARD        SUNNY     83  70  64 SE7       29.90F
LINCOLN        SUNNY     86  69  56 S12       29.89F HX  90
NEBRASKA CITY  CLEAR     83  65  55 SE6       29.91F
BEATRICE       SUNNY     87  68  54 SE7       29.90S HX  90
FALLS CITY     CLEAR     84  72  67 SE8       29.90F

...NORTHERN KANSAS...

CITY           SKY/WX    TMP DP  RH WIND       PRES   REMARKS
GOODLAND       SUNNY     93  47  20 SE12      29.92R
HILL CITY      SUNNY     96  51  21 S12       29.86S HX  93
NORTON         CLEAR     93  45  18 SE6       29.85S
PHILLIPSBURG   SUNNY     99  50  19 E3        29.85S HX  95
SMITH CENTER   SUNNY     91  55  29 E10       29.86S
HAYS           SUNNY     95  52  23 S17       29.87R HX  92
RUSSELL        SUNNY     94  51  23 S16       29.86S HX  91
CONCORDIA      SUNNY     85  64  49 SE8       29.89R
SALINA         SUNNY     89  64  43 SE13      29.88S HX  90
TOPEKA         CLEAR     86  70  58 SE9       29.92S HX  90



USA.gov is the U.S. government's official web portal to all federal, state and local government web resources and services.